Grand Forks, ND

3:13 PM CDT on April 20, 2018 (GMT -0500)
Grand Forks International

Weather History for KGFK - June, 2012

Change the Weather History Date:

Thursday, June 7, 2012

  Actual Average Record
Temperature  
Mean Temperature 75 °F 62 °F  
Max Temperature 85 °F 74 °F 98 °F (1959)
Min Temperature 65 °F 50 °F 31 °F (1915)
Degree Days  
Heating Degree Days 0 5  
Month to date heating degree days 11 39  
Since 1 June heating degree days 11 39  
Since 1 July heating degree days 7487 9451  
Cooling Degree Days 10 2  
Month to date cooling degree days 27 10  
Year to date cooling degree days 49 27  
Since 1 June cooling degree days 27 10  
Growing Degree Days 24 (Base 50)    
Moisture  
Dew Point 63 °F    
Average Humidity 62    
Maximum Humidity 73    
Minimum Humidity 51    
Precipitation  
Precipitation 0.72 in 0.11 in 1.86 in (1968)
Month to date precipitation 0.78 0.74  
Year to date precipitation 6.62 6.46  
Snow  
Snow 0.00 in 0.00 in - ()
Month to date snowfall 0.0 0.0  
Since 1 June snowfall 0.0 0.0  
Since 1 July snowfall 22.8 47.4  
Snow Depth 0.00 in    
Sea Level Pressure  
Sea Level Pressure 29.91 in    
Wind  
Wind Speed 9 mph (SE)    
Max Wind Speed 26 mph    
Max Gust Speed 36 mph    
Visibility 9 miles    
Events Rain , Thunderstorm    
T = Trace of Precipitation, MM = Missing Value Source: NWS Daily Summary

Daily Weather History Graph

Daily Weather History Graph

Search for Another Location

Airport or City:

Astronomy

Jun. 07, 2012 Rise Set
Actual Time 5:30 AM CDT 9:25 PM CDT
Civil Twilight 4:49 AM CDT 10:06 PM CDT
Nautical Twilight 3:54 AM CDT 11:02 PM CDT
Astronomical Twilight 2:27 AM CDT 12:30 AM CDT
Moon No Moon Rise 9:13 AM CDT (6/7)
Length of Visible Light 17h 16m
Length of Day
15h 55m
Waning Gibbous, 86% of the Moon is Illuminated
Jun 7
Waning Gibbous
Jun 11
Last Quarter
Jun 19
New
Jun 26
First Quarter
Jul 3
Full

Hourly Weather History & Observations

Time (CDT) Temp. Heat Index Dew Point Humidity Pressure Visibility Wind Dir Wind Speed Gust Speed Precip Events Conditions
12:53 AM 68.0 °F - 55.0 °F 63% 29.94 in 10.0 mi SE 8.1 mph - N/A   Partly Cloudy
1:53 AM 69.1 °F - 55.9 °F 63% 29.95 in 10.0 mi SSE 6.9 mph - N/A   Mostly Cloudy
2:53 AM 70.0 °F - 59.0 °F 68% 29.94 in 10.0 mi SE 8.1 mph - N/A   Mostly Cloudy
3:53 AM 70.0 °F - 59.0 °F 68% 29.94 in 10.0 mi SE 5.8 mph - N/A   Mostly Cloudy
6:53 AM 68.0 °F - 60.1 °F 76% 29.97 in 10.0 mi NNW 3.5 mph - N/A Thunderstorm Thunderstorm
7:53 AM 64.9 °F - 62.1 °F 90% 29.98 in 3.0 mi East 9.2 mph - 0.11 in Rain , Thunderstorm Thunderstorms and Rain
8:37 AM 66.2 °F - 64.4 °F 94% 29.96 in 9.0 mi East 8.1 mph - 0.13 in Rain Light Rain
8:53 AM 66.0 °F - 63.0 °F 90% 29.96 in 10.0 mi East 8.1 mph - 0.13 in Rain Light Rain
9:53 AM 69.1 °F - 64.0 °F 84% 29.96 in 10.0 mi SE 9.2 mph - 0.00 in   Overcast
10:53 AM 72.0 °F - 63.0 °F 73% 29.96 in 10.0 mi SE 11.5 mph - N/A   Overcast
11:53 AM 73.9 °F - 64.9 °F 73% 29.96 in 10.0 mi SSE 6.9 mph - N/A   Mostly Cloudy
12:53 PM 75.9 °F - 64.9 °F 69% 29.96 in 10.0 mi Calm Calm - N/A   Mostly Cloudy
1:53 PM 79.0 °F - 66.0 °F 64% 29.93 in 10.0 mi ESE 9.2 mph - N/A   Mostly Cloudy
2:53 PM 80.1 °F 81.9 °F 64.9 °F 60% 29.91 in 10.0 mi ESE 12.7 mph - N/A   Mostly Cloudy
3:53 PM 82.0 °F 83.8 °F 64.9 °F 56% 29.89 in 10.0 mi ESE 15.0 mph - N/A   Mostly Cloudy
4:53 PM 84.0 °F 86.3 °F 66.0 °F 55% 29.87 in 10.0 mi SE 10.4 mph - N/A   Mostly Cloudy
5:53 PM 84.9 °F 86.6 °F 64.9 °F 51% 29.83 in 10.0 mi ESE 12.7 mph - N/A   Scattered Clouds
6:53 PM 84.9 °F 86.6 °F 64.9 °F 51% 29.82 in 10.0 mi ESE 12.7 mph - N/A   Mostly Cloudy
7:45 PM 73.4 °F - 62.6 °F 69% 29.84 in 10.0 mi South 24.2 mph 34.5 mph N/A Thunderstorm Mostly Cloudy
7:53 PM 71.1 °F - 61.0 °F 70% 29.83 in 10.0 mi South 15.0 mph 32.2 mph N/A Thunderstorm Mostly Cloudy
8:12 PM 69.8 °F - 62.6 °F 78% 29.87 in 9.0 mi SW 15.0 mph 25.3 mph 0.00 in Rain Light Rain
8:53 PM 70.0 °F - 64.9 °F 84% 29.86 in 7.0 mi South 17.3 mph 24.2 mph 0.04 in Rain Light Rain
9:53 PM 69.1 °F - 63.0 °F 81% 29.85 in 8.0 mi East 5.8 mph - 0.11 in Rain , Thunderstorm Rain
10:26 PM 66.2 °F - 62.6 °F 88% 29.92 in 1.8 mi SSW 3.5 mph - 0.15 in Rain , Thunderstorm Heavy Thunderstorms and Rain
10:50 PM 66.2 °F - 60.8 °F 83% 29.85 in 8.0 mi NNE 9.2 mph - 0.32 in Rain Light Rain
10:53 PM 68.0 °F - 61.0 °F 78% 29.84 in 10.0 mi NE 10.4 mph - 0.33 in Rain Light Rain